Surface/Precipitation History
01/22/2019 07:06  to  1/23/2019 07:06
Change End Date:
Date/Time
(MST)
Sf
Temp Chem Water Layer Surface Precipitation
Sfc Pvt Sub Frz Factor Pct Dpth DpthThk IcePct Cond Salin FI Type Intens Accum Rate
01/23/2019 06:56 Wet - - - 32F 35 0% 0.00 in - 0% 2 mhos 62 - Yes - - -
01/23/2019 06:54 Wet - - - 32F 40 0% 0.00 in - 0% 2 mhos 62 - None None - -
01/23/2019 06:44 Wet - - - 32F 45 0% 0.00 in - 0% 2 mhos 64 - Yes - - -
01/23/2019 06:41 Wet - - - 32F 20 0% 0.00 in - 0% 2 mhos 64 - Yes - - -
01/23/2019 06:34 Wet - - - 32F 30 0% 0.00 in - 0% 2 mhos 64 - Yes - - -
01/23/2019 06:26 Wet - - - 32F 25 0% 0.00 in - 0% 2 mhos 67 - Yes - - -
01/23/2019 06:24 Wet - - - 32F 25 0% 0.00 in - 0% 2 mhos 65 - Yes - - -
01/23/2019 06:14 Wet - - - 32F 40 0% 0.00 in - 0% 2 mhos 65 - Yes - - -
01/23/2019 06:11 Wet - - - 32F 55 0% 0.00 in - 0% 2 mhos 68 - Yes - - -
01/23/2019 06:04 Wet - - - 32F 30 0% 0.00 in - 0% 2 mhos 67 - Yes - - -
01/23/2019 05:56 Wet - - - 32F 40 0% 0.00 in - 0% 2 mhos 66 - Yes - - -
01/23/2019 05:54 Wet - - - 32F 70 0% 0.00 in - 0% 2 mhos 67 - Yes - - -
01/23/2019 05:44 Wet - - - 32F 80 0% 0.00 in - 0% 2 mhos 70 - Yes - - -
01/23/2019 05:41 Wet - - - 32F 65 0% 0.00 in - 0% 2 mhos 68 - Yes - - -
01/23/2019 05:34 Wet - - - 32F 85 0% 0.00 in - 0% 2 mhos 71 - Yes - - -
Date/Time
(MST)
Sf
Temp Chem Water Layer Surface Precipitation
Sfc Pvt Sub Frz Factor Pct Dpth DpthThk IcePct Cond Salin FI Type Intens Accum Rate
01/23/2019 05:26 Wet - - - 32F 85 0% 0.00 in - 0% 2 mhos 69 - Yes - - -
01/23/2019 05:24 Wet - - - 32F 85 0% 0.00 in - 0% 2 mhos 67 - Yes - - -
01/23/2019 05:14 Wet - - - 32F 95 0% 0.00 in - 0% 3 mhos 72 - Yes - - -
01/23/2019 05:11 Wet - - - 32F 75 0% 0.00 in - 0% 3 mhos 72 - Yes - - -
01/23/2019 05:04 Wet - - - 32F 65 0% 0.00 in - 0% 2 mhos 71 - Yes - - -
01/23/2019 04:56 Wet - - - 32F 90 0% 0.00 in - 0% 3 mhos 73 - Yes - - -
01/23/2019 04:54 Wet - - - 32F 95 0% 0.00 in - 0% 3 mhos 73 - Yes - - -
01/23/2019 04:44 Wet - - - 32F 95 0% 0.00 in - 0% 3 mhos 72 - Yes - - -
01/23/2019 04:41 Wet - - - 32F 95 0% 0.00 in - 0% 3 mhos 75 - Yes - - -
01/23/2019 04:34 Wet - - - 32F 85 0% 0.00 in - 0% 3 mhos 76 - Yes - - -
01/23/2019 04:26 Wet - - - 32F 95 0% 0.00 in - 0% 3 mhos 75 - Yes - - -
01/23/2019 04:24 Wet - - - 32F 95 0% 0.00 in - 0% 3 mhos 73 - Yes - - -
01/23/2019 04:14 Wet - - - 32F 80 0% 0.00 in - 0% 3 mhos 76 - Yes - - -
01/23/2019 04:11 Wet - - - 32F 95 0% 0.00 in - 0% 3 mhos 74 - Yes - - -
01/23/2019 04:04 Wet - - - 32F 95 0% 0.00 in - 0% 3 mhos 78 - Yes - - -
Date/Time
(MST)
Sf
Temp Chem Water Layer Surface Precipitation
Sfc Pvt Sub Frz Factor Pct Dpth DpthThk IcePct Cond Salin FI Type Intens Accum Rate
01/23/2019 03:56 Wet - - - 32F 70 0% 0.00 in - 0% 3 mhos 78 - Yes - - -
01/23/2019 03:54 Wet - - - 32F 90 0% 0.00 in - 0% 3 mhos 75 - Yes - - -
01/23/2019 03:43 Wet - - - 32F 70 0% 0.00 in - 0% 3 mhos 79 - Yes - - -
01/23/2019 03:41 Wet - - - 32F 85 0% 0.00 in - 0% 3 mhos 79 - Yes - - -
01/23/2019 03:33 Wet - - - 32F 70 0% 0.00 in - 0% 3 mhos 79 - Yes - - -
01/23/2019 03:26 Wet - - - 32F 70 0% 0.00 in - 0% 3 mhos 76 - Yes - - -
01/23/2019 03:23 Wet - - - 32F 95 0% 0.00 in - 0% 3 mhos 78 - Yes - - -
01/23/2019 03:13 Wet - - - 32F 80 0% 0.00 in - 0% 3 mhos 82 - Yes - - -
01/23/2019 03:11 Wet - - - 32F 95 0% 0.00 in - 0% 3 mhos 81 - Yes - - -
01/23/2019 03:03 Wet - - - 32F 90 0% 0.00 in - 0% 3 mhos 82 - Yes - - -
01/23/2019 02:56 Wet - - - 32F 95 0% 0.00 in - 0% 3 mhos 81 - Yes - - -
01/23/2019 02:53 Error - - - - - - - - - 3 mhos 78 - Yes - - -
01/23/2019 02:43 Error - - - - - - - - - 3 mhos 80 - Yes - - -
01/23/2019 02:41 Error - - - - - - - - - 3 mhos 79 - Yes - - -
01/23/2019 02:33 Wet - - - 32F 95 0% 0.00 in - 0% 3 mhos 77 - Yes - - -
Date/Time
(MST)
Sf
Temp Chem Water Layer Surface Precipitation
Sfc Pvt Sub Frz Factor Pct Dpth DpthThk IcePct Cond Salin FI Type Intens Accum Rate
01/23/2019 02:26 Wet - - - 32F 95 0% 0.00 in - 0% 3 mhos 82 - Yes - - -
01/23/2019 02:23 Wet - - - 32F 95 0% 0.00 in - 0% 3 mhos 82 - Yes - - -
01/23/2019 02:13 Wet - - - 32F 95 0% 0.00 in - 0% 3 mhos 82 - None None - -
01/23/2019 02:11 Wet - - - 32F 90 0% 0.00 in - 0% 3 mhos 78 - Yes - - -
01/23/2019 02:03 Wet - - - 32F 95 0% 0.00 in - 0% 3 mhos 76 - None None - -
01/23/2019 01:56 Wet - - - 32F 95 0% 0.00 in - 0% 3 mhos 79 - None None - -
01/23/2019 01:53 Wet - - - 32F 95 0% 0.00 in - 0% 3 mhos 76 - Yes - - -
01/23/2019 01:43 Wet - - - 32F 95 0% 0.00 in - 0% 3 mhos 75 - None None - -
01/23/2019 01:41 Wet - - - 32F 95 0% 0.00 in - 0% 3 mhos 79 - Yes - - -
01/23/2019 01:33 Wet - - - 32F 95 0% 0.00 in - 0% 3 mhos 74 - Yes - - -
01/23/2019 01:26 Wet - - - 32F 95 0% 0.00 in - 0% 3 mhos 73 - Yes - - -
01/23/2019 01:23 Wet - - - 32F 95 0% 0.00 in - 0% 3 mhos 75 - Yes - - -
01/23/2019 01:13 Wet - - - 32F 95 0% 0.00 in - 0% 3 mhos 75 - Yes - - -
01/23/2019 01:11 Wet - - - 32F 95 0% 0.00 in - 0% 3 mhos 74 - Yes - - -
01/23/2019 01:03 Wet - - - 32F 95 0% 0.00 in - 0% 2 mhos 71 - None None - -
Date/Time
(MST)
Sf
Temp Chem Water Layer Surface Precipitation
Sfc Pvt Sub Frz Factor Pct Dpth DpthThk IcePct Cond Salin FI Type Intens Accum Rate
01/23/2019 00:56 Wet - - - 32F 95 0% 0.00 in - 0% 2 mhos 71 - None None - -
01/23/2019 00:53 Wet - - - 32F 95 0% 0.00 in - 0% 3 mhos 74 - None None - -
01/23/2019 00:43 Wet - - - 32F 85 0% 0.00 in - 0% 2 mhos 71 - None None - -
01/23/2019 00:41 Wet - - - 32F 85 0% 0.00 in - 0% 2 mhos 71 - None None - -
01/23/2019 00:32 Wet - - - 32F 75 0% 0.00 in - 0% 2 mhos 71 - None None - -
01/23/2019 00:26 Wet - - - 32F 85 0% 0.00 in - 0% 2 mhos 70 - None None - -
01/23/2019 00:22 Wet - - - 32F 95 0% 0.00 in - 0% 2 mhos 69 - None None - -
01/23/2019 00:12 Wet - - - 32F 80 0% 0.00 in - 0% 2 mhos 69 - None None - -
01/23/2019 00:11 Wet - - - 32F 80 0% 0.00 in - 0% 2 mhos 68 - None None - -
01/23/2019 00:02 Wet - - - 32F 75 0% 0.00 in - 0% 2 mhos 64 - None None - -
01/22/2019 23:56 Wet - - - 32F 30 0% 0.00 in - 0% 2 mhos 62 - Yes - - -
01/22/2019 23:52 Wet - - - 32F 20 0% 0.00 in - 0% 2 mhos 59 - None None - -
01/22/2019 23:42 Wet - - - 32F 20 0% 0.00 in - 0% 2 mhos 57 - None None - -
01/22/2019 23:41 Wet - - - 32F 20 0% 0.00 in - 0% 2 mhos 58 - None None - -
01/22/2019 23:32 Wet - - - 32F 15 0% 0.00 in - 0% 2 mhos 59 - None None - -
Date/Time
(MST)
Sf
Temp Chem Water Layer Surface Precipitation
Sfc Pvt Sub Frz Factor Pct Dpth DpthThk IcePct Cond Salin FI Type Intens Accum Rate
01/22/2019 23:26 Wet - - - 32F 15 0% 0.00 in - 0% 2 mhos 60 - None None - -
01/22/2019 23:22 Wet - - - 32F 20 0% 0.00 in - 0% 2 mhos 61 - None None - -
01/22/2019 23:12 Wet - - - 32F 20 0% 0.00 in - 0% 2 mhos 63 - None None - -
01/22/2019 23:11 Wet - - - 32F 20 0% 0.00 in - 0% 2 mhos 63 - None None - -
01/22/2019 23:02 Wet - - - 32F 30 0% 0.00 in - 0% 2 mhos 62 - None None - -
01/22/2019 22:56 Wet - - - 32F 25 0% 0.00 in - 0% 2 mhos 63 - None None - -
01/22/2019 22:52 Wet - - - 32F 30 0% 0.00 in - 0% 2 mhos 61 - Yes - - -
01/22/2019 22:42 Wet - - - 32F 25 0% 0.00 in - 0% 2 mhos 62 - None None - -
01/22/2019 22:41 Wet - - - 32F 25 0% 0.00 in - 0% 2 mhos 62 - None None - -
01/22/2019 22:32 Wet - - - 32F 30 0% 0.00 in - 0% 2 mhos 62 - None None - -
01/22/2019 22:26 Wet - - - 32F 55 0% 0.00 in - 0% 2 mhos 62 - None None - -
01/22/2019 22:22 Wet - - - 32F 35 0% 0.00 in - 0% 2 mhos 62 - None None - -
01/22/2019 22:12 Wet - - - 32F 20 0% 0.00 in - 0% 2 mhos 61 - Yes - - -
01/22/2019 22:11 Wet - - - 32F 20 0% 0.00 in - 0% 2 mhos 61 - Yes - - -
01/22/2019 22:02 Wet - - - 32F 20 0% 0.00 in - 0% 2 mhos 61 - None None - -
Date/Time
(MST)
Sf
Temp Chem Water Layer Surface Precipitation
Sfc Pvt Sub Frz Factor Pct Dpth DpthThk IcePct Cond Salin FI Type Intens Accum Rate
01/22/2019 21:56 Wet - - - 32F 30 0% 0.00 in - 0% 2 mhos 58 - Yes - - -
01/22/2019 21:52 Wet - - - 32F 25 0% 0.00 in - 0% 2 mhos 58 - None None - -
01/22/2019 21:42 Wet - - - 32F 40 0% 0.00 in - 0% 2 mhos 57 - None None - -
01/22/2019 21:41 Wet - - - 32F 40 0% 0.00 in - 0% 2 mhos 57 - Yes - - -
01/22/2019 21:32 Wet - - - 32F 45 0% 0.00 in - 0% 2 mhos 53 - None None - -
01/22/2019 21:26 Wet - - - 32F 45 0% 0.00 in - 0% 2 mhos 52 - None None - -
01/22/2019 21:22 Wet - - - 32F 55 0% 0.00 in - 0% 2 mhos 47 - Yes - - -
01/22/2019 21:11 Wet - - - 32F 85 0% 0.00 in - 0% 1 mhos 39 - Yes - - -
01/22/2019 21:11 Wet - - - 32F 85 0% 0.00 in - 0% 1 mhos 39 - Yes - - -
01/22/2019 21:01 Wet - - - 32F 30 0% 0.00 in - 0% 1 mhos 23 - Yes - - -
01/22/2019 20:56 Wet - - - 32F 5 0% 0.00 in - 0% 1 mhos 17 - Yes - - -
01/22/2019 20:51 Wet - - - 32F 5 0% 0.00 in - 0% 1 mhos 15 - None None - -
01/22/2019 20:41 Wet - - - 32F 5 0% 0.00 in - 0% 1 mhos 15 - None None - -
01/22/2019 20:41 Wet - - - 32F 5 0% 0.00 in - 0% 1 mhos 15 - None None - -
01/22/2019 20:31 Wet - - - 32F 5 0% 0.00 in - 0% 1 mhos 15 - None None - -
Date/Time
(MST)
Sf
Temp Chem Water Layer Surface Precipitation
Sfc Pvt Sub Frz Factor Pct Dpth DpthThk IcePct Cond Salin FI Type Intens Accum Rate
01/22/2019 20:26 Wet - - - 32F 5 0% 0.00 in - 0% 1 mhos 15 - Yes - - -
01/22/2019 20:21 Wet - - - 32F 5 0% 0.00 in - 0% 1 mhos 15 - None None - -
01/22/2019 20:11 Wet - - - 32F 5 0% 0.00 in - 0% 1 mhos 16 - Yes - - -
01/22/2019 20:11 Wet - - - 32F 5 0% 0.00 in - 0% 1 mhos 16 - Yes - - -
01/22/2019 20:01 Wet - - - 32F 5 0% 0.00 in - 0% 1 mhos 17 - Yes - - -
01/22/2019 19:56 Wet - - - 32F 5 0% 0.00 in - 0% 1 mhos 17 - Yes - - -
01/22/2019 19:51 Wet - - - 32F 5 0% 0.00 in - 0% 1 mhos 17 - None None - -
01/22/2019 19:41 Wet - - - 32F 5 0% 0.00 in - 0% 1 mhos 18 - None None - -
01/22/2019 19:41 Wet - - - 32F 5 0% 0.00 in - 0% 1 mhos 18 - None None - -
01/22/2019 19:31 Wet - - - 32F 5 0% 0.00 in - 0% 1 mhos 19 - Yes - - -
01/22/2019 19:26 Wet - - - 32F 5 0% 0.00 in - 0% 1 mhos 19 - None None - -
01/22/2019 19:21 Wet - - - 32F 5 0% 0.00 in - 0% 1 mhos 20 - None None - -
01/22/2019 19:11 Wet - - - 32F 5 0% 0.00 in - 0% 1 mhos 21 - None None - -
01/22/2019 19:11 Wet - - - 32F 5 0% 0.00 in - 0% 1 mhos 21 - None None - -
01/22/2019 19:01 Wet - - - 32F 5 0% 0.00 in - 0% 1 mhos 22 - Yes - - -
Date/Time
(MST)
Sf
Temp Chem Water Layer Surface Precipitation
Sfc Pvt Sub Frz Factor Pct Dpth DpthThk IcePct Cond Salin FI Type Intens Accum Rate
01/22/2019 18:56 Wet - - - 32F 5 0% 0.00 in - 0% 1 mhos 23 - None None - -
01/22/2019 18:51 Wet - - - 32F 5 0% 0.00 in - 0% 1 mhos 24 - Yes - - -
01/22/2019 18:41 Wet - - - 32F 5 0% 0.00 in - 0% 1 mhos 26 - None None - -
01/22/2019 18:41 Wet - - - 32F 5 0% 0.00 in - 0% 1 mhos 26 - None None - -
01/22/2019 18:31 Wet - - - 32F 5 0% 0.00 in - 0% 1 mhos 27 - Yes - - -
01/22/2019 18:26 Wet - - - 32F 5 0% 0.00 in - 0% 1 mhos 28 - None None - -
01/22/2019 18:21 Wet - - - 32F 5 0% 0.00 in - 0% 1 mhos 28 - None None - -
01/22/2019 18:11 Wet - - - 32F 5 0% 0.00 in - 0% 1 mhos 29 - Yes - - -
01/22/2019 18:11 Wet - - - 32F 5 0% 0.00 in - 0% 1 mhos 29 - Yes - - -
01/22/2019 18:00 Wet - - - 32F 5 0% 0.00 in - 0% 1 mhos 31 - None None - -
01/22/2019 17:56 Wet - - - 32F 5 0% 0.00 in - 0% 1 mhos 32 - None None - -
01/22/2019 17:50 Wet - - - 32F 5 0% 0.00 in - 0% 1 mhos 34 - None None - -
01/22/2019 17:41 Wet - - - 32F 5 0% 0.00 in - 0% 1 mhos 37 - None None - -
01/22/2019 17:40 Wet - - - 32F 5 0% 0.00 in - 0% 1 mhos 37 - Yes - - -
01/22/2019 17:30 Wet - - - 32F 5 0% 0.00 in - 0% 1 mhos 40 - Yes - - -
Date/Time
(MST)
Sf
Temp Chem Water Layer Surface Precipitation
Sfc Pvt Sub Frz Factor Pct Dpth DpthThk IcePct Cond Salin FI Type Intens Accum Rate
01/22/2019 17:26 Wet - - - 32F 5 0% 0.00 in - 0% 1 mhos 42 - Yes - - -
01/22/2019 17:20 Wet - - - 32F 5 0% 0.00 in - 0% 2 mhos 43 - Yes - - -
01/22/2019 17:11 Wet - - - 32F 5 0% 0.00 in - 0% 2 mhos 45 - None None - -
01/22/2019 17:10 Wet - - - 32F 5 0% 0.00 in - 0% 2 mhos 46 - None None - -
01/22/2019 17:00 Wet - - - 32F 5 0% 0.00 in - 0% 2 mhos 48 - Yes - - -
01/22/2019 16:56 Wet - - - 32F 5 0% 0.00 in - 0% 2 mhos 49 - Yes - - -
01/22/2019 16:50 Wet - - - 32F 5 0% 0.00 in - 0% 2 mhos 52 - Yes - - -
01/22/2019 16:41 Wet - - - 32F 5 0% 0.00 in - 0% 2 mhos 57 - Yes - - -
01/22/2019 16:40 Wet - - - 32F 5 0% 0.00 in - 0% 2 mhos 58 - Yes - - -
01/22/2019 16:30 Wet - - - 32F 5 0% 0.00 in - 0% 2 mhos 64 - None None - -
01/22/2019 16:26 Wet - - - 32F 5 0% 0.00 in - 0% 2 mhos 65 - None None - -
01/22/2019 16:20 Wet - - - 32F 5 0% 0.00 in - 0% 2 mhos 69 - None None - -
01/22/2019 16:11 Wet - - - 32F 5 0% 0.00 in - 0% 3 mhos 73 - None None - -
01/22/2019 16:10 Wet - - - 32F 5 0% 0.00 in - 0% 2 mhos 70 - None None - -
01/22/2019 16:00 Wet - - - 32F 5 0% 0.00 in - 0% 3 mhos 76 - Yes - - -
Date/Time
(MST)
Sf
Temp Chem Water Layer Surface Precipitation
Sfc Pvt Sub Frz Factor Pct Dpth DpthThk IcePct Cond Salin FI Type Intens Accum Rate
01/22/2019 15:56 Wet - - - 32F 5 0% 0.00 in - 0% 3 mhos 77 - Yes - - -
01/22/2019 15:50 Wet - - - 32F 5 0% 0.00 in - 0% 3 mhos 84 - Yes - - -
01/22/2019 15:41 Wet - - - 32F 5 0% 0.00 in - 0% 3 mhos 88 - Yes - - -
01/22/2019 15:40 Wet - - - 32F 5 0% 0.00 in - 0% 3 mhos 89 - None None - -
01/22/2019 15:30 Wet - - - 32F 5 0% 0.00 in - 0% 3 mhos 97 - Yes - - -
01/22/2019 15:26 Wet - - - 32F 5 0% 0.00 in - 0% 3 mhos 99 - None None - -
01/22/2019 15:20 Wet - - - 32F 5 0% 0.00 in - 0% 4 mhos 103 - None None - -
01/22/2019 15:11 Wet - - - 32F 5 0% 0.00 in - 0% 4 mhos 107 - None None - -
01/22/2019 15:10 Wet - - - 32F 5 0% 0.00 in - 0% 4 mhos 109 - None None - -
01/22/2019 14:59 Wet - - - 32F 5 0% 0.00 in - 0% 4 mhos 115 - None None - -
01/22/2019 14:56 Wet - - - 32F 5 0% 0.00 in - 0% 4 mhos 117 - Yes - - -
01/22/2019 14:49 Wet - - - 32F 5 0% 0.00 in - 0% 4 mhos 121 - None None - -
01/22/2019 14:41 Wet - - - 32F 5 0% 0.00 in - 0% 4 mhos 126 - None None - -
01/22/2019 14:39 Wet - - - 32F 5 0% 0.00 in - 0% 4 mhos 126 - None None - -
01/22/2019 14:29 Wet - - - 32F 5 0% 0.00 in - 0% 5 mhos 134 - None None - -
Date/Time
(MST)
Sf
Temp Chem Water Layer Surface Precipitation
Sfc Pvt Sub Frz Factor Pct Dpth DpthThk IcePct Cond Salin FI Type Intens Accum Rate
01/22/2019 14:26 Wet - - - 32F 5 0% 0.00 in - 0% 5 mhos 136 - None None - -
01/22/2019 14:19 Wet - - - 32F 5 0% 0.00 in - 0% 5 mhos 139 - None None - -
01/22/2019 14:11 Wet - - - 32F 5 0% 0.00 in - 0% 5 mhos 143 - None None - -
01/22/2019 14:09 Wet - - - 32F 5 0% 0.00 in - 0% 5 mhos 145 - None None - -
01/22/2019 13:59 Wet - - - 32F 5 1% 0.00 in - 0% 5 mhos 153 - None None - -
01/22/2019 13:56 Wet - - - 32F 5 1% 0.00 in - 0% 5 mhos 154 - Yes - - -
01/22/2019 13:49 Wet - - - 32F 5 1% 0.00 in - 0% 5 mhos 157 - Yes - - -
01/22/2019 13:41 Wet - - - 32F 5 1% 0.00 in - 0% 6 mhos 159 - None None - -
01/22/2019 13:39 Wet - - - 32F 5 1% 0.00 in - 0% 6 mhos 159 - None None - -
01/22/2019 13:29 Wet - - - 32F 5 1% 0.00 in - 0% 6 mhos 157 - None None - -
01/22/2019 13:26 Wet - - - 32F 5 1% 0.00 in - 0% 5 mhos 157 - None None - -
01/22/2019 13:19 Wet - - - 32F 5 1% 0.00 in - 0% 6 mhos 159 - None None - -
01/22/2019 13:11 Wet - - - 32F 10 1% 0.00 in - 0% 6 mhos 159 - None None - -
01/22/2019 13:09 Wet - - - 32F 10 1% 0.00 in - 0% 6 mhos 159 - None None - -
01/22/2019 12:59 Wet - - - 32F 55 1% 0.00 in - 0% 6 mhos 165 - Yes - - -
Date/Time
(MST)
Sf
Temp Chem Water Layer Surface Precipitation
Sfc Pvt Sub Frz Factor Pct Dpth DpthThk IcePct Cond Salin FI Type Intens Accum Rate
01/22/2019 12:56 Wet - - - 32F 55 1% 0.00 in - 0% 6 mhos 166 - None None - -
01/22/2019 12:49 Wet - - - 32F 95 1% 0.00 in - 0% 6 mhos 170 - Yes - - -
01/22/2019 12:41 Wet - - - 32F 95 1% 0.00 in - 0% 6 mhos 169 - None None - -
01/22/2019 12:39 Wet - - - 32F 95 1% 0.00 in - 0% 6 mhos 184 - None None - -
01/22/2019 12:29 Wet - - - 32F 95 1% 0.00 in - 0% 7 mhos 192 - None None - -
01/22/2019 12:26 Wet - - - 32F 95 1% 0.00 in - 0% 7 mhos 196 - None None - -
01/22/2019 12:19 Wet - - - 32F 95 1% 0.00 in - 0% 7 mhos 196 - None None - -
01/22/2019 12:11 Wet - - - 32F 95 1% 0.00 in - 0% 6 mhos 173 - None None - -
01/22/2019 12:09 Wet - - - 32F 90 1% 0.00 in - 0% 6 mhos 169 - None None - -
01/22/2019 11:59 Wet - - - 32F 95 0% 0.00 in - 0% 5 mhos 147 - None None - -
01/22/2019 11:57 Wet - - - 32F 95 1% 0.00 in - 0% 5 mhos 151 - None None - -
01/22/2019 11:49 Wet - - - 32F 80 0% 0.00 in - 0% 5 mhos 137 - None None - -
01/22/2019 11:41 Wet - - - 32F 95 0% 0.00 in - 0% 4 mhos 128 - None None - -
01/22/2019 11:39 Wet - - - 32F 95 0% 0.00 in - 0% 4 mhos 128 - None None - -
01/22/2019 11:29 Wet - - - 32F 95 0% 0.00 in - 0% 4 mhos 105 - None None - -
Date/Time
(MST)
Sf
Temp Chem Water Layer Surface Precipitation
Sfc Pvt Sub Frz Factor Pct Dpth DpthThk IcePct Cond Salin FI Type Intens Accum Rate
01/22/2019 11:26 Wet - - - 32F 95 0% 0.00 in - 0% 4 mhos 105 - None None - -
01/22/2019 11:18 Wet - - - 32F 95 0% 0.00 in - 0% 4 mhos 105 - None None - -
01/22/2019 11:11 Wet - - - 32F 95 0% 0.00 in - 0% 3 mhos 83 - None None - -
01/22/2019 11:08 Wet - - - 32F 95 0% 0.00 in - 0% 4 mhos 106 - None None - -
01/22/2019 10:58 Wet - - - 32F 95 0% 0.00 in - 0% 2 mhos 65 - None None - -
01/22/2019 10:56 Wet - - - 32F 80 0% 0.00 in - 0% 2 mhos 65 - None None - -
01/22/2019 10:48 Wet - - - 32F 95 0% 0.00 in - 0% 2 mhos 61 - None None - -
01/22/2019 10:41 Wet - - - 32F 95 0% 0.10 in - 0% 2 mhos 54 - None None - -
01/22/2019 10:38 Wet - - - 32F 80 0% 0.00 in - 0% 2 mhos 59 - None None - -
01/22/2019 10:28 Wet - - - 32F 95 0% 0.00 in - 0% 2 mhos 54 - None None - -
01/22/2019 10:26 Wet - - - 32F 85 0% 0.00 in - 0% 2 mhos 54 - None None - -
01/22/2019 10:18 Wet - - - 32F 95 0% 0.00 in - 0% 2 mhos 57 - None None - -
01/22/2019 10:11 Wet - - - 32F 95 0% 0.00 in - 0% 2 mhos 56 - None None - -
01/22/2019 10:08 Wet - - - 32F 80 0% 0.00 in - 0% 2 mhos 61 - None None - -
01/22/2019 09:58 Wet - - - 32F 95 0% 0.00 in - 0% 2 mhos 60 - None None - -
Date/Time
(MST)
Sf
Temp Chem Water Layer Surface Precipitation
Sfc Pvt Sub Frz Factor Pct Dpth DpthThk IcePct Cond Salin FI Type Intens Accum Rate
01/22/2019 09:56 Wet - - - 32F 95 0% 0.00 in - 0% 2 mhos 60 - None None - -
01/22/2019 09:48 Wet - - - 32F 95 0% 0.10 in - 0% 2 mhos 49 - None None - -
01/22/2019 09:41 Wet - - - 32F 95 0% 0.00 in - 0% 2 mhos 54 - None None - -
01/22/2019 09:38 Wet - - - 32F 95 0% 0.10 in - 0% 2 mhos 49 - None None - -
01/22/2019 09:28 Wet - - - 32F 95 0% 0.00 in - 0% 2 mhos 50 - None None - -
01/22/2019 09:26 Wet - - - 32F 80 0% 0.00 in - 0% 2 mhos 49 - None None - -
01/22/2019 09:18 Wet - - - 32F 95 0% 0.00 in - 0% 2 mhos 53 - None None - -
01/22/2019 09:11 Wet - - - 32F 80 0% 0.00 in - 0% 2 mhos 50 - None None - -
01/22/2019 09:08 Wet - - - 32F 95 0% 0.00 in - 0% 2 mhos 51 - None None - -
01/22/2019 08:58 Wet - - - 32F 95 0% 0.00 in - 0% 2 mhos 47 - None None - -
01/22/2019 08:56 Wet - - - 32F 95 0% 0.00 in - 0% 2 mhos 48 - None None - -
01/22/2019 08:47 Wet - - - 32F 95 0% 0.00 in - 0% 2 mhos 45 - None None - -
01/22/2019 08:41 Wet - - - 32F 95 0% 0.00 in - 0% 1 mhos 41 - None None - -
01/22/2019 08:37 Wet - - - 32F 95 0% 0.00 in - 0% 1 mhos 39 - None None - -
01/22/2019 08:27 Wet - - - 32F 85 0% 0.00 in - 0% 1 mhos 38 - None None - -
Date/Time
(MST)
Sf
Temp Chem Water Layer Surface Precipitation
Sfc Pvt Sub Frz Factor Pct Dpth DpthThk IcePct Cond Salin FI Type Intens Accum Rate
01/22/2019 08:26 Wet - - - 32F 95 0% 0.00 in - 0% 1 mhos 39 - None None - -
01/22/2019 08:17 Wet - - - 32F 80 0% 0.00 in - 0% 1 mhos 36 - None None - -
01/22/2019 08:11 Wet - - - 32F 80 0% 0.00 in - 0% 1 mhos 36 - None None - -
01/22/2019 08:07 Wet - - - 32F 85 0% 0.00 in - 0% 1 mhos 37 - None None - -
01/22/2019 07:57 Wet - - - 32F 95 0% 0.00 in - 0% 1 mhos 37 - None None - -
01/22/2019 07:56 Wet - - - 32F 95 0% 0.00 in - 0% 1 mhos 37 - None None - -
01/22/2019 07:47 Wet - - - 32F 95 0% 0.00 in - 0% 1 mhos 35 - None None - -
01/22/2019 07:41 Wet - - - 32F 95 0% 0.00 in - 0% 1 mhos 37 - None None - -
01/22/2019 07:37 Wet - - - 32F 95 0% 0.00 in - 0% 1 mhos 36 - None None - -
01/22/2019 07:27 Wet - - - 32F 95 0% 0.00 in - 0% 1 mhos 34 - None None - -
01/22/2019 07:26 Wet - - - 32F 75 0% 0.00 in - 0% 1 mhos 35 - None None - -
01/22/2019 07:17 Wet - - - 32F 80 0% 0.00 in - 0% 1 mhos 34 - None None - -
01/22/2019 07:11 Wet - - - 32F 95 0% 0.00 in - 0% 1 mhos 33 - None None - -
01/22/2019 07:07 Wet - - - 32F 95 0% 0.00 in - 0% 1 mhos 33 - None None - -
Change End Date:

Copyright © 1998-2015 Vaisala, Inc.
All Rights Reserved
Send comments about the data to:
SCAN Web ® is a registered trademark of Vaisala, Inc.
SCAN Web Version 6.0